Temperature
9 10 10 10 10 10 9 10 9 9 9 10 9 10 10 9 9 10 10 10 10 10 10 10 10 10 10 10 10 10 10 10 10 10 10 10 10 10 10 10 10 10 10
9 9 9 9 9 9 9 9 9 9 9 9 9 9 9 9 9 9 9 9 9 9 10 10 10 9 9 10 10 10 10 10 10 10 10 10 10 10 10 10 10 10 10
9 9 9 9 9 9 9 9 9 9 8 9 9 9 9 9 9 9 9 9 9 9 9 9 9 9 9 9 9 9 9 9 9 9 10 10 10 10 10 10 10 10 10
8 8 8 8 8 8 8 8 8 8 8 8 8 8 8 8 8 8 8 9 9 9 9 9 9 9 9 9 9 9 9 9 9 9 9 9 10 10 10 9 9 9 9
8 8 8 8 8 8 8 8 8 8 8 8 8 8 8 8 8 8 8 8 8 8 8 8 9 9 8 8 8 8 8 8 9 9 9 9 9 9 9 9 9 9 9
8 7 7 7 7 7 7 7 7 7 7 7 7 7 7 7 8 8 8 8 8 8 8 8 8 8 8 8 8 8 8 8 8 8 9 8 9 9 9 9 9 9 9
7 7 7 7 7 6 6 6 6 6 7 6 6 7 7 7 7 7 7 7 7 7 7 8 8 7 8 8 8 8 8 8 8 8 8 8 8 8 8 8 8 8 8
6 6 6 6 6 6 6 6 6 6 6 6 6 6 5 6 7 7 7 7 7 7 7 7 7 7 7 7 7 8 7 7 8 8 8 8 8 8 8 8 8 8 8
6 6 6 6 6 6 6 5 5 5 5 5 5 5 5 5 5 6 6 6 6 6 6 6 6 7 7 7 7 7 7 7 7 7 7 7 7 7 7 7 8 8 7
5 5 5 5 5 5 5 5 5 5 5 5 5 5 5 5 5 5 5 5 5 5 6 6 6 6 6 6 6 6 6 6 7 7 7 7 7 7 7 7 7 7 7
5 5 5 5 5 5 5 5 4 5 4 4 4 4 4 4 4 4 4 5 5 5 5 5 5 6 5 6 5 6 6 6 6 6 7 7 7 7 7 6 7 7 6
4 4 4 4 4 4 4 4 4 4 4 4 4 4 4 4 4 4 4 4 4 4 5 5 5 5 5 5 5 5 5 5 6 6 6 6 6 6 6 6 6 6 6
4 4 4 4 4 4 4 4 4 4 4 4 4 4 4 4 4 4 3 3 3 4 4 4 4 5 4 4 4 5 5 5 5 5 6 6 6 6 6 6 6 6 6
3 3 3 4 4 4 4 4 3 3 3 3 3 3 3 3 3 3 3 3 3 3 3 4 4 4 4 4 4 4 4 4 5 5 5 5 5 5 5 5 5 5 5
3 3 3 3 3 3 3 3 3 3 3 3 3 3 3 3 3 3 3 3 2 2 2 3 3 3 3 4 4 4 4 4 4 4 5 5 5 5 5 5 5 5 5
3 3 3 3 3 3 3 3 2 2 2 2 2 2 2 2 3 3 2 2 2 2 2 2 3 3 3 3 3 3 3 3 4 4 4 4 4 4 4 4 4 4 4
2 3 3 3 3 3 2 2 2 2 2 2 2 2 2 2 2 2 2 2 2 2 2 2 2 2 2 3 3 3 3 3 3 3 3 3 4 4 4 4 4 4 4
2 2 2 2 2 2 2 2 2 1 1 1 1 1 2 2 2 2 1 1 1 1 1 1 2 2 2 2 2 2 3 3 3 3 3 3 3 3 3 3 3 3 3
2 2 2 2 2 1 1 1 1 1 1 1 1 1 1 1 1 1 1 1 1 1 1 1 1 1 1 1 1 2 2 2 2 2 2 2 2 3 3 3 3 3 3
1 1 1 1 1 1 1 1 1 1 1 1 1 1 1 1 1 1 1 1 1 1 1 1 1 1 1 1 1 1 1 2 2 2 2 2 2 2 2 2 2 2 2
1 1 1 1 1 1 1 0 0 1 1 1 1 1 1 1 0 0 0 0 1 1 0 0 0 0 0 0 0 0 1 1 1 1 1 2 2 2 2 2 2 2 2
1 1 1 1 0 0 0 0 0 0 0 0 0 0 -0 -0 -0 -0 -0 -0 0 0 0 0 -0 0 0 0 0 0 0 0 0 0 1 1 1 1 1 1 1 1 1
0 0 0 0 0 0 0 0 0 -0 -0 -0 -0 -0 -1 -1 -1 -1 -1 -1 -0 -0 -0 -0 -0 -0 -0 -0 -0 -0 -0 -0 -0 -0 0 0 0 1 1 1 1 1 1
0 0 -0 -0 -0 -0 -0 -0 -0 -0 -0 -1 -1 -1 -1 -1 -1 -1 -1 -1 -1 -1 -1 -0 -0 -0 -0 -0 -0 -0 -1 -1 -0 -0 -0 -0 -0 0 0 0 0 0 0
-0 -0 -1 -1 -1 -1 -1 -1 -1 -1 -1 -1 -1 -1 -1 -1 -1 -1 -1 -1 -1 -1 -1 -1 -1 -1 -0 -0 -1 -1 -1 -1 -1 -1 -1 -1 -1 -1 -1 -0 -0 -0 -0
-1 -1 -1 -1 -1 -1 -1 -1 -1 -1 -1 -1 -1 -1 -1 -2 -2 -2 -2 -2 -2 -1 -1 -1 -1 -1 -1 -1 -1 -1 -1 -1 -1 -1 -1 -1 -1 -2 -2 -1 -1 -1 -1
Wind_Speed
1 1 1 1 2 2 2 2 2 3 2 3 3 3 3 3 2 2 1 3 4 5 5 6 6 7 7 6 6 6 6 6 5 5 5 5 5 5 6 6 6 6 7
1 1 1 1 2 2 3 3 3 3 2 2 3 2 2 3 2 2 2 3 4 5 5 6 6 7 7 7 7 7 6 7 6 5 6 6 6 6 6 7 7 7 7
1 1 1 1 2 3 3 3 3 2 2 2 3 3 2 2 2 2 2 2 2 3 4 5 6 7 7 7 7 7 7 7 7 6 7 6 7 7 7 7 7 7 8
2 2 1 1 2 3 2 2 2 2 2 2 3 3 2 2 3 3 2 1 1 1 2 5 6 7 8 8 7 7 7 8 7 8 7 7 7 7 8 8 8 8 8
2 2 1 2 2 2 2 2 2 2 2 3 3 3 2 2 3 3 2 1 1 1 1 3 5 7 8 8 8 8 8 8 8 8 8 8 8 7 8 8 8 9 9
2 2 2 2 2 2 2 2 2 2 2 2 3 3 3 3 3 2 2 1 1 2 1 2 2 4 6 7 8 8 9 9 9 9 8 8 8 8 8 8 8 9 9
2 2 2 2 2 2 2 2 2 2 2 2 1 3 4 4 3 2 2 1 1 1 1 1 1 2 3 6 7 8 9 10 9 9 9 8 9 8 8 8 8 9 10
3 3 2 2 2 2 2 2 2 1 2 1 1 1 2 2 2 2 2 2 2 1 1 1 1 2 3 3 5 7 8 9 9 9 9 9 9 9 8 8 8 9 9
3 2 2 2 2 2 2 2 2 2 2 2 1 1 1 2 3 2 3 2 2 2 2 1 1 2 3 2 3 5 7 8 9 9 9 9 9 9 8 8 8 8 8
2 2 2 2 2 2 2 2 2 2 2 3 2 2 2 1 1 3 3 3 2 2 2 2 2 2 2 2 3 5 7 8 9 9 9 9 9 9 9 8 8 8 8
2 2 2 2 2 2 2 2 2 2 2 3 2 2 2 2 2 2 4 3 2 2 2 3 2 1 1 2 2 5 8 8 8 8 8 9 9 9 9 8 8 8 8
2 3 3 2 2 2 2 3 3 3 3 3 3 2 2 2 2 2 3 3 4 3 3 3 2 1 1 1 3 6 7 8 8 8 7 7 8 8 8 8 8 8 8
2 3 3 2 2 2 2 2 3 3 3 3 3 3 2 2 2 2 2 3 4 3 3 3 2 1 1 1 2 6 7 8 8 7 7 7 7 7 7 8 8 8 8
2 3 3 3 2 2 2 2 2 3 3 3 3 2 2 2 2 2 2 2 3 3 3 3 2 1 0 1 3 6 5 8 8 7 6 6 6 6 7 8 8 8 8
2 2 3 2 3 2 2 2 2 2 2 2 3 3 2 3 2 2 2 2 3 4 4 2 2 1 2 2 4 4 4 6 8 7 6 6 6 6 7 7 7 8 8
3 3 3 3 3 3 2 2 1 2 2 2 2 3 3 2 2 2 2 2 3 3 4 3 2 3 3 3 5 5 4 6 7 7 6 6 6 7 7 7 7 7 8
3 3 3 3 3 3 2 2 2 3 3 2 2 3 3 2 2 2 2 2 3 3 4 4 2 2 3 3 3 3 4 3 4 6 5 6 6 6 6 6 7 7 7
3 3 3 3 3 3 2 3 3 3 3 3 3 3 3 3 3 2 2 3 3 3 3 4 4 2 3 2 2 2 3 3 3 5 5 5 6 6 6 6 6 7 7
3 3 3 3 3 3 3 3 3 3 3 3 3 3 3 3 3 3 3 3 2 3 2 3 4 3 2 2 2 3 2 2 4 4 5 5 6 6 6 6 6 7 8
2 3 3 3 3 3 3 3 3 3 3 3 3 3 3 3 3 3 3 3 3 2 2 2 3 3 2 2 2 2 2 2 3 3 4 5 5 6 7 7 7 6 6
3 3 3 3 3 3 3 3 3 3 2 3 3 3 3 3 3 3 2 2 2 2 2 2 3 3 2 2 2 2 2 2 2 2 2 3 3 2 4 6 6 6 6
3 3 2 3 3 3 4 4 3 3 2 3 3 3 2 3 3 4 4 3 3 2 2 3 3 3 3 2 2 2 2 2 2 1 2 3 2 2 2 3 6 7 7
3 2 2 2 2 3 4 4 3 2 2 2 3 3 2 2 3 2 2 3 3 4 4 3 4 4 3 3 2 2 2 2 3 2 2 3 2 3 3 4 7 7 7
2 2 3 2 2 3 4 3 4 2 2 2 2 1 1 1 2 1 0 1 1 2 3 3 3 4 4 3 3 3 2 1 1 1 1 2 2 3 4 3 6 7 7
2 2 2 2 2 3 3 3 2 1 1 1 1 1 1 1 1 1 1 1 2 2 3 3 3 4 4 4 2 1 1 0 2 2 1 0 1 3 3 3 4 6 7
3 2 2 2 2 2 2 2 2 1 1 1 1 1 2 1 2 2 1 1 2 2 2 2 2 3 2 1 1 1 2 2 1 2 1 0 1 2 2 2 2 4 5
Wind_Direction
270 302 300 300 312 318 308 303 308 303 289 291 294 298 303 305 305 297 253 260 268 276 278 284 289 294 294 288 286 293 290 292 296 295 300 301 304 306 309 313 314 315 307
303 300 285 305 313 306 296 296 294 292 271 274 281 293 297 303 302 291 252 249 256 271 272 280 287 292 297 296 288 290 293 291 293 302 307 300 295 295 296 298 300 304 305
292 300 296 289 307 302 301 306 299 304 281 282 283 287 289 295 287 277 269 237 237 269 278 286 291 291 293 295 295 290 293 292 293 295 296 298 296 292 292 293 293 296 300
288 294 290 285 296 300 304 288 286 298 290 292 292 292 288 279 276 265 258 243 236 263 280 286 292 293 294 293 297 297 296 293 294 293 292 289 290 291 289 290 291 293 295
271 282 285 284 294 300 290 289 300 301 296 300 293 282 281 270 266 258 249 218 211 219 261 291 288 293 296 297 299 297 298 299 298 294 292 288 287 288 292 290 288 289 292
257 274 278 281 282 272 274 275 275 282 274 275 289 289 278 267 257 245 253 228 213 214 242 284 294 297 297 301 305 303 299 300 302 298 290 287 287 288 290 294 293 290 290
256 264 277 282 276 256 254 255 259 276 288 287 296 301 280 257 234 237 248 260 260 225 248 257 295 298 304 299 301 305 307 304 302 303 298 290 290 290 291 292 296 299 293
254 256 253 261 269 260 256 250 260 254 266 256 230 285 298 305 287 255 233 242 253 238 268 283 285 317 310 310 306 304 307 313 310 308 307 301 296 295 293 295 296 302 304
263 262 258 264 264 252 231 223 231 234 250 258 232 201 223 270 306 277 252 239 245 248 254 259 259 280 297 309 300 305 306 309 306 305 305 300 298 297 295 296 298 300 308
263 261 272 274 268 250 222 227 219 238 245 247 260 255 247 228 246 299 283 261 251 254 262 276 265 253 270 301 308 308 312 310 307 305 306 304 298 300 299 298 301 302 303
249 266 270 267 264 246 223 231 237 248 252 243 243 254 262 266 247 233 276 293 299 273 265 268 260 254 277 286 309 308 310 309 308 308 308 310 306 303 307 303 303 304 306
259 249 258 253 258 245 223 227 232 239 255 256 248 242 233 234 232 231 255 285 291 291 292 278 254 235 263 294 305 306 312 308 309 310 310 314 316 313 313 314 310 306 306
276 260 261 257 256 250 237 234 231 238 251 252 247 247 241 243 243 241 251 278 294 295 286 278 250 215 269 290 292 305 310 313 312 313 312 313 318 318 320 320 317 315 311
262 269 265 263 265 255 249 240 242 238 245 236 240 245 243 246 239 230 232 256 294 293 282 274 288 223 342 318 297 308 309 311 310 313 315 313 319 322 324 324 319 318 323
275 274 268 267 268 262 246 237 242 257 248 227 227 236 241 241 238 244 238 223 237 277 283 268 299 302 343 318 303 307 301 308 312 313 315 318 320 322 322 323 321 321 321
279 276 277 270 261 252 240 236 244 258 239 235 226 229 242 242 233 234 238 245 240 251 273 281 285 292 302 309 306 311 300 310 314 312 313 315 319 321 319 317 320 321 322
276 271 268 266 262 257 245 240 241 250 231 238 248 239 241 244 235 229 232 240 248 247 265 286 284 283 292 296 307 314 314 307 310 309 311 320 323 324 324 322 323 324 325
282 275 273 267 263 256 247 245 245 246 224 230 240 244 252 251 243 235 234 238 243 245 253 276 287 285 285 289 300 307 323 329 324 319 324 327 327 329 330 330 331 332 329
289 285 274 265 263 255 247 248 247 251 231 232 236 239 250 246 245 241 237 240 245 256 254 261 279 286 288 292 310 321 327 329 330 327 333 337 336 334 330 329 328 327 327
281 275 268 268 265 258 247 249 248 252 237 236 237 237 241 242 246 242 242 240 243 246 251 253 270 282 287 293 303 309 316 325 328 337 337 333 327 328 328 326 325 326 328
279 269 271 273 268 255 245 251 250 252 238 239 243 245 245 262 275 268 260 251 244 239 247 253 261 278 281 274 282 293 300 313 328 335 338 328 335 339 341 337 339 338 337
278 272 271 270 268 269 267 260 255 245 233 229 240 246 247 251 269 282 286 293 283 249 242 250 258 259 271 273 289 286 284 301 303 321 347 329 339 329 329 343 335 336 336
277 272 269 274 273 279 279 274 273 250 226 235 243 238 240 256 267 266 292 303 313 304 280 261 253 256 260 258 262 265 270 284 279 272 333 312 325 327 329 335 328 328 331
279 271 265 266 270 283 284 269 278 240 219 233 242 237 213 221 251 247 275 306 299 296 283 273 258 260 260 248 234 237 251 288 304 308 353 300 310 317 321 332 322 321 326
270 268 270 265 262 283 283 267 264 233 218 237 242 236 214 217 294 303 279 283 300 309 318 303 284 278 285 273 256 198 177 179 301 310 339 269 293 319 316 311 333 330 332
253 254 262 258 249 271 287 276 257 233 222 242 260 247 233 247 285 307 278 239 273 294 323 333 335 332 337 347 340 212 204 220 274 283 261 298 284 332 329 318 329 340 340
Height
1496 1497 1497 1497 1496 1496 1496 1496 1495 1495 1495 1496 1496 1496 1496 1497 1496 1497 1497 1497 1497 1497 1497 1497 1497 1497 1497 1497 1497 1497 1497 1497 1497 1496 1496 1496 1496 1495 1495 1495 1495 1494 1494
1494 1494 1494 1494 1494 1494 1494 1493 1493 1493 1492 1492 1493 1493 1493 1493 1493 1493 1494 1494 1494 1494 1494 1494 1494 1494 1494 1494 1494 1494 1494 1494 1493 1493 1493 1493 1492 1492 1492 1492 1491 1491 1491
1491 1491 1491 1491 1491 1491 1491 1491 1490 1490 1490 1489 1489 1490 1490 1490 1490 1490 1490 1490 1491 1491 1491 1491 1491 1491 1491 1491 1491 1490 1490 1490 1490 1490 1489 1489 1489 1489 1489 1488 1488 1488 1487
1488 1488 1488 1488 1488 1488 1488 1487 1487 1487 1487 1486 1486 1486 1487 1487 1487 1487 1487 1487 1487 1487 1487 1487 1487 1487 1487 1487 1487 1487 1487 1487 1486 1486 1486 1485 1485 1485 1485 1485 1484 1484 1484
1485 1485 1484 1484 1484 1484 1484 1484 1484 1484 1483 1483 1483 1483 1483 1483 1483 1483 1483 1483 1483 1483 1484 1484 1483 1483 1484 1484 1484 1483 1483 1483 1482 1482 1482 1481 1481 1481 1481 1481 1481 1481 1480
1481 1481 1481 1480 1481 1481 1481 1480 1480 1480 1480 1480 1480 1479 1480 1480 1479 1480 1480 1480 1480 1480 1480 1480 1480 1480 1480 1480 1480 1480 1480 1479 1478 1478 1478 1477 1477 1477 1477 1477 1477 1477 1476
1478 1477 1477 1477 1477 1477 1476 1476 1476 1476 1477 1477 1477 1476 1476 1476 1476 1476 1477 1477 1477 1477 1477 1477 1477 1477 1476 1476 1476 1476 1476 1475 1475 1474 1474 1474 1473 1473 1473 1473 1473 1472 1472
1474 1473 1473 1473 1472 1472 1472 1472 1473 1473 1474 1475 1474 1474 1474 1474 1473 1473 1474 1474 1474 1474 1474 1474 1474 1473 1473 1473 1472 1472 1472 1471 1471 1470 1470 1470 1469 1469 1469 1469 1469 1469 1468
1470 1470 1470 1469 1469 1468 1468 1469 1469 1470 1470 1471 1472 1473 1472 1471 1470 1470 1471 1471 1471 1471 1471 1470 1470 1470 1470 1469 1469 1469 1468 1468 1467 1467 1466 1466 1466 1465 1465 1465 1464 1464 1464
1467 1466 1466 1465 1465 1465 1465 1466 1466 1467 1468 1468 1469 1470 1471 1470 1469 1467 1467 1468 1468 1468 1467 1467 1467 1467 1466 1466 1466 1465 1464 1464 1464 1463 1462 1462 1462 1461 1461 1461 1460 1460 1460
1463 1462 1462 1462 1461 1461 1462 1462 1463 1464 1465 1465 1465 1466 1467 1467 1467 1467 1464 1464 1464 1464 1464 1464 1463 1463 1463 1462 1462 1461 1461 1461 1460 1460 1459 1458 1458 1457 1457 1457 1456 1456 1456
1459 1459 1459 1458 1458 1458 1459 1459 1460 1460 1461 1462 1461 1462 1463 1463 1463 1463 1462 1460 1460 1460 1460 1460 1460 1460 1459 1459 1458 1458 1458 1457 1457 1456 1455 1455 1454 1453 1453 1453 1452 1452 1451
1456 1455 1455 1455 1455 1455 1456 1456 1456 1457 1457 1458 1458 1459 1459 1459 1460 1460 1459 1458 1457 1456 1456 1456 1456 1456 1456 1455 1455 1455 1454 1454 1453 1453 1452 1451 1450 1449 1449 1449 1448 1448 1448
1453 1453 1452 1452 1452 1452 1452 1452 1453 1453 1453 1454 1454 1455 1455 1455 1456 1456 1456 1455 1454 1453 1452 1452 1452 1453 1452 1452 1451 1451 1451 1450 1450 1449 1448 1447 1447 1446 1445 1445 1445 1444 1444
1450 1450 1449 1449 1448 1449 1448 1448 1449 1449 1449 1450 1450 1451 1451 1452 1452 1452 1452 1452 1453 1450 1448 1448 1449 1449 1449 1448 1448 1447 1447 1447 1446 1445 1445 1444 1443 1443 1442 1441 1441 1440 1440
1447 1446 1446 1445 1445 1445 1445 1445 1445 1446 1446 1446 1446 1447 1447 1447 1448 1448 1449 1449 1449 1449 1446 1445 1446 1446 1446 1445 1445 1444 1443 1443 1442 1442 1441 1441 1440 1439 1438 1438 1437 1436 1436
1443 1443 1443 1442 1442 1442 1442 1442 1442 1442 1442 1442 1443 1443 1443 1444 1444 1445 1445 1445 1446 1446 1444 1442 1443 1443 1442 1442 1441 1441 1440 1440 1439 1438 1438 1437 1437 1436 1435 1434 1433 1432 1432
1440 1439 1439 1439 1439 1438 1438 1438 1438 1438 1439 1439 1439 1439 1440 1440 1441 1441 1441 1441 1442 1442 1441 1439 1439 1439 1439 1439 1438 1437 1437 1436 1435 1435 1434 1434 1433 1432 1432 1431 1430 1429 1428
1437 1436 1436 1435 1435 1435 1435 1435 1435 1435 1435 1435 1436 1436 1436 1437 1437 1437 1438 1438 1438 1438 1438 1437 1435 1436 1435 1435 1434 1434 1434 1433 1432 1432 1431 1430 1430 1429 1428 1427 1426 1425 1424
1434 1433 1433 1432 1432 1432 1432 1431 1432 1432 1432 1432 1432 1433 1433 1433 1433 1434 1434 1434 1434 1434 1434 1434 1433 1432 1432 1432 1431 1430 1430 1429 1429 1429 1428 1427 1426 1425 1425 1424 1423 1422 1421
1431 1430 1430 1429 1429 1429 1429 1428 1428 1428 1428 1428 1429 1429 1430 1430 1430 1430 1431 1431 1431 1431 1431 1430 1430 1429 1428 1428 1428 1427 1427 1426 1426 1426 1424 1424 1423 1422 1421 1420 1419 1418 1417
1428 1427 1427 1426 1426 1426 1426 1425 1425 1425 1425 1425 1425 1426 1426 1426 1426 1427 1427 1428 1428 1428 1427 1427 1426 1426 1425 1425 1425 1425 1424 1423 1422 1423 1421 1420 1420 1419 1418 1417 1416 1415 1413
1425 1424 1424 1423 1423 1422 1422 1422 1422 1422 1422 1422 1422 1423 1423 1423 1423 1423 1424 1424 1424 1425 1425 1424 1423 1423 1423 1423 1422 1422 1422 1421 1420 1420 1419 1417 1417 1416 1415 1414 1413 1412 1411
1422 1421 1421 1420 1420 1419 1419 1419 1419 1420 1419 1419 1420 1420 1420 1420 1420 1421 1421 1420 1421 1421 1421 1421 1421 1420 1420 1420 1420 1420 1419 1418 1418 1418 1417 1414 1413 1413 1412 1411 1410 1409 1408
1418 1418 1418 1418 1417 1417 1417 1417 1417 1417 1417 1417 1417 1417 1417 1418 1418 1418 1418 1417 1417 1417 1418 1418 1418 1418 1417 1417 1417 1417 1416 1415 1414 1413 1414 1412 1410 1409 1407 1406 1406 1405 1404
1415 1415 1415 1415 1415 1415 1415 1415 1415 1414 1414 1414 1415 1415 1415 1415 1416 1416 1415 1415 1414 1414 1414 1415 1415 1415 1415 1414 1414 1414 1414 1413 1411 1410 1410 1410 1408 1407 1404 1402 1403 1402 1401